Year,Month,Day,Hour,Minute,Value (Times are PST for windspeed in km/hr)
2010,06,01,00,00,6.20
2010,06,01,00,01,4.10
2010,06,01,00,02,7.30
2010,06,01,00,03,7.20
2010,06,01,00,04,6.70
2010,06,01,00,05,4.90
2010,06,01,00,06,4.30
2010,06,01,00,07,6.80
2010,06,01,00,08,5.60
2010,06,01,00,09,4.20
2010,06,01,00,10,2.20
2010,06,01,00,11,5.60
2010,06,01,00,12,4.70
2010,06,01,00,13,1.00
2010,06,01,00,14,1.80
2010,06,01,00,15,4.80
2010,06,01,00,16,1.40
2010,06,01,00,17,4.60
2010,06,01,00,18,4.70
2010,06,01,00,19,5.30
2010,06,01,00,20,4.70
2010,06,01,00,21,6.70
2010,06,01,00,22,6.30
2010,06,01,00,23,3.80
2010,06,01,00,24,6.80
2010,06,01,00,25,6.70
2010,06,01,00,26,4.90
2010,06,01,00,27,6.60
2010,06,01,00,28,5.90
2010,06,01,00,29,7.60
2010,06,01,00,30,5.30
2010,06,01,00,31,7.60
2010,06,01,00,32,5.30
2010,06,01,00,33,5.60
2010,06,01,00,34,7.00
2010,06,01,00,35,10.60
2010,06,01,00,36,5.10
2010,06,01,00,37,6.80
2010,06,01,00,38,6.40
2010,06,01,00,39,7.00
2010,06,01,00,40,8.00
2010,06,01,00,41,6.80
2010,06,01,00,42,3.40
2010,06,01,00,43,9.10
2010,06,01,00,44,10.50
2010,06,01,00,45,9.50
2010,06,01,00,46,9.30
2010,06,01,00,47,9.00
2010,06,01,00,48,6.30
2010,06,01,00,49,7.20
2010,06,01,00,50,7.20
2010,06,01,00,51,7.30
2010,06,01,00,52,8.60
2010,06,01,00,53,6.50
2010,06,01,00,54,7.80
2010,06,01,00,55,9.40
2010,06,01,00,56,7.40
2010,06,01,00,57,6.30
2010,06,01,00,58,7.50
2010,06,01,00,59,9.40
2010,06,01,01,00,6.40
2010,06,01,01,01,5.20
2010,06,01,01,02,8.10
2010,06,01,01,03,6.00
2010,06,01,01,04,9.50
2010,06,01,01,05,8.00
2010,06,01,01,06,2.00
2010,06,01,01,07,6.90
2010,06,01,01,08,11.30
2010,06,01,01,09,10.20
2010,06,01,01,10,5.50
2010,06,01,01,11,6.20
2010,06,01,01,12,7.40
2010,06,01,01,13,7.20
2010,06,01,01,14,5.10
2010,06,01,01,15,5.20
2010,06,01,01,16,6.20
2010,06,01,01,17,4.50
2010,06,01,01,18,3.40
2010,06,01,01,19,1.70
2010,06,01,01,20,1.40
2010,06,01,01,21,2.10
2010,06,01,01,22,1.40
2010,06,01,01,23,1.20
2010,06,01,01,24,0.20
2010,06,01,01,25,0.10
2010,06,01,01,26,1.50
2010,06,01,01,27,0.90
2010,06,01,01,28,1.00
2010,06,01,01,29,0.10
2010,06,01,01,30,0.00
2010,06,01,01,31,0.10
2010,06,01,01,32,0.40
2010,06,01,01,33,0.00
2010,06,01,01,34,0.20
2010,06,01,01,35,0.00
2010,06,01,01,36,0.00
2010,06,01,01,37,0.20
2010,06,01,01,38,0.20
2010,06,01,01,39,0.60
2010,06,01,01,40,0.90
2010,06,01,01,41,0.10
2010,06,01,01,42,1.40
2010,06,01,01,43,1.10
2010,06,01,01,44,4.80
2010,06,01,01,45,4.20
2010,06,01,01,46,3.90
2010,06,01,01,47,3.80
2010,06,01,01,48,3.80
2010,06,01,01,49,4.40
2010,06,01,01,50,2.90
2010,06,01,01,51,1.80
2010,06,01,01,52,2.80
2010,06,01,01,53,3.20
2010,06,01,01,54,4.20
2010,06,01,01,55,2.40
2010,06,01,01,56,5.20
2010,06,01,01,57,3.60
2010,06,01,01,58,3.80
2010,06,01,01,59,3.90
2010,06,01,02,00,1.00
2010,06,01,02,01,5.20
2010,06,01,02,02,5.40
2010,06,01,02,03,5.30
2010,06,01,02,04,3.40
2010,06,01,02,05,3.50
2010,06,01,02,06,4.40
2010,06,01,02,07,4.40
2010,06,01,02,08,3.50
2010,06,01,02,09,3.60
2010,06,01,02,10,3.80
2010,06,01,02,11,4.50
2010,06,01,02,12,1.60
2010,06,01,02,13,2.90
2010,06,01,02,14,1.20
2010,06,01,02,15,0.70
2010,06,01,02,16,3.70
2010,06,01,02,17,3.10
2010,06,01,02,18,4.10
2010,06,01,02,19,2.10
2010,06,01,02,20,5.70
2010,06,01,02,21,3.70
2010,06,01,02,22,4.30
2010,06,01,02,23,1.30
2010,06,01,02,24,5.60
2010,06,01,02,25,5.60
2010,06,01,02,26,4.70
2010,06,01,02,27,4.70
2010,06,01,02,28,5.10
2010,06,01,02,29,2.50
2010,06,01,02,30,2.10
2010,06,01,02,31,5.10
2010,06,01,02,32,8.00
2010,06,01,02,33,5.10
2010,06,01,02,34,3.80
2010,06,01,02,35,9.10
2010,06,01,02,36,5.40
2010,06,01,02,37,6.70
2010,06,01,02,38,3.90
2010,06,01,02,39,1.80
2010,06,01,02,40,3.80
2010,06,01,02,41,3.90
2010,06,01,02,42,4.80
2010,06,01,02,43,3.60
2010,06,01,02,44,5.30
2010,06,01,02,45,7.80
2010,06,01,02,46,7.20
2010,06,01,02,47,6.20
2010,06,01,02,48,8.50
2010,06,01,02,49,6.10
2010,06,01,02,50,5.40
2010,06,01,02,51,9.30
2010,06,01,02,52,4.20
2010,06,01,02,53,1.90
2010,06,01,02,54,2.70
2010,06,01,02,55,2.20
2010,06,01,02,56,2.70
2010,06,01,02,57,4.70
2010,06,01,02,58,4.30
2010,06,01,02,59,3.30
2010,06,01,03,00,2.70
2010,06,01,03,01,2.20
2010,06,01,03,02,1.20
2010,06,01,03,03,0.80
2010,06,01,03,04,2.40
2010,06,01,03,05,2.60
2010,06,01,03,06,2.30
2010,06,01,03,07,3.50
2010,06,01,03,08,1.80
2010,06,01,03,09,2.20
2010,06,01,03,10,2.30
2010,06,01,03,11,1.30
2010,06,01,03,12,1.80
2010,06,01,03,13,1.30
2010,06,01,03,14,0.90
2010,06,01,03,15,0.40
2010,06,01,03,16,1.30
2010,06,01,03,17,3.60
2010,06,01,03,18,5.60
2010,06,01,03,19,4.10
2010,06,01,03,20,4.20
2010,06,01,03,21,4.20
2010,06,01,03,22,4.30
2010,06,01,03,23,2.30
2010,06,01,03,24,3.00
2010,06,01,03,25,3.90
2010,06,01,03,26,0.20
2010,06,01,03,27,5.70
2010,06,01,03,28,2.10
2010,06,01,03,29,3.50
2010,06,01,03,30,3.90
2010,06,01,03,31,1.00
2010,06,01,03,32,3.20
2010,06,01,03,33,3.70
2010,06,01,03,34,4.30
2010,06,01,03,35,2.30
2010,06,01,03,36,0.70
2010,06,01,03,37,3.60
2010,06,01,03,38,2.90
2010,06,01,03,39,0.20
2010,06,01,03,40,1.40
2010,06,01,03,41,0.10
2010,06,01,03,42,2.80
2010,06,01,03,43,2.00
2010,06,01,03,44,2.70
2010,06,01,03,45,2.30
2010,06,01,03,46,1.00
2010,06,01,03,47,1.80
2010,06,01,03,48,0.10
2010,06,01,03,49,0.00
2010,06,01,03,50,0.00
2010,06,01,03,51,0.00
2010,06,01,03,52,1.40
2010,06,01,03,53,0.20
2010,06,01,03,54,0.10
2010,06,01,03,55,0.70
2010,06,01,03,56,1.00
2010,06,01,03,57,2.80
2010,06,01,03,58,4.50
2010,06,01,03,59,1.80
2010,06,01,04,00,1.80
2010,06,01,04,01,1.90
2010,06,01,04,02,4.10
2010,06,01,04,03,2.50
2010,06,01,04,04,5.00
2010,06,01,04,05,4.70
2010,06,01,04,06,6.70
2010,06,01,04,07,4.60
2010,06,01,04,08,4.20
2010,06,01,04,09,4.70
2010,06,01,04,10,5.30
2010,06,01,04,11,4.60
2010,06,01,04,12,3.50
2010,06,01,04,13,2.30
2010,06,01,04,14,3.10
2010,06,01,04,15,4.10
2010,06,01,04,16,2.60
2010,06,01,04,17,1.00
2010,06,01,04,18,3.80
2010,06,01,04,19,1.00
2010,06,01,04,20,2.40
2010,06,01,04,21,2.80
2010,06,01,04,22,0.90
2010,06,01,04,23,2.70
2010,06,01,04,24,1.00
2010,06,01,04,25,1.30
2010,06,01,04,26,0.80
2010,06,01,04,27,0.20
2010,06,01,04,28,2.00
2010,06,01,04,29,2.10
2010,06,01,04,30,1.20
2010,06,01,04,31,2.10
2010,06,01,04,32,0.50
2010,06,01,04,33,0.50
2010,06,01,04,34,0.70
2010,06,01,04,35,1.20
2010,06,01,04,36,1.40
2010,06,01,04,37,2.60
2010,06,01,04,38,0.20
2010,06,01,04,39,3.00
2010,06,01,04,40,1.50
2010,06,01,04,41,0.40
2010,06,01,04,42,1.10
2010,06,01,04,43,0.60
2010,06,01,04,44,1.50
2010,06,01,04,45,3.10
2010,06,01,04,46,1.50
2010,06,01,04,47,0.70
2010,06,01,04,48,0.60
2010,06,01,04,49,2.10
2010,06,01,04,50,1.60
2010,06,01,04,51,1.90
2010,06,01,04,52,1.20
2010,06,01,04,53,3.90
2010,06,01,04,54,2.50
2010,06,01,04,55,2.50
2010,06,01,04,56,1.50
2010,06,01,04,57,4.60
2010,06,01,04,58,0.90
2010,06,01,04,59,1.70
2010,06,01,05,00,1.70
2010,06,01,05,01,0.30
2010,06,01,05,02,0.70
2010,06,01,05,03,0.30
2010,06,01,05,04,1.60
2010,06,01,05,05,2.70
2010,06,01,05,06,0.90
2010,06,01,05,07,1.20
2010,06,01,05,08,1.50
2010,06,01,05,09,1.80
2010,06,01,05,10,2.90
2010,06,01,05,11,0.70
2010,06,01,05,12,1.90
2010,06,01,05,13,1.50
2010,06,01,05,14,0.20
2010,06,01,05,15,0.00
2010,06,01,05,16,2.10
2010,06,01,05,17,2.60
2010,06,01,05,18,0.70
2010,06,01,05,19,0.50
2010,06,01,05,20,1.60
2010,06,01,05,21,2.10
2010,06,01,05,22,1.00
2010,06,01,05,23,1.30
2010,06,01,05,24,0.90
2010,06,01,05,25,0.80
2010,06,01,05,26,1.70
2010,06,01,05,27,0.10
2010,06,01,05,28,1.20
2010,06,01,05,29,2.30
2010,06,01,05,30,0.50
2010,06,01,05,31,1.70
2010,06,01,05,32,0.50
2010,06,01,05,33,0.00
2010,06,01,05,34,0.30
2010,06,01,05,35,0.20
2010,06,01,05,36,0.20
2010,06,01,05,37,0.00
2010,06,01,05,38,0.00
2010,06,01,05,39,1.60
2010,06,01,05,40,0.10
2010,06,01,05,41,1.10
2010,06,01,05,42,0.00
2010,06,01,05,43,1.40
2010,06,01,05,44,0.00
2010,06,01,05,45,1.00
2010,06,01,05,46,2.40
2010,06,01,05,47,1.80
2010,06,01,05,48,0.30
2010,06,01,05,49,0.10
2010,06,01,05,50,0.80
2010,06,01,05,51,2.70
2010,06,01,05,52,1.40
2010,06,01,05,53,0.70
2010,06,01,05,54,2.20
2010,06,01,05,55,3.60
2010,06,01,05,56,4.20
2010,06,01,05,57,2.10
2010,06,01,05,58,3.50
2010,06,01,05,59,5.90
2010,06,01,06,00,4.40
2010,06,01,06,01,3.80
2010,06,01,06,02,1.70
2010,06,01,06,03,2.50
2010,06,01,06,04,3.40
2010,06,01,06,05,1.80
2010,06,01,06,06,1.40
2010,06,01,06,07,2.70
2010,06,01,06,08,4.60
2010,06,01,06,09,0.60
2010,06,01,06,10,0.40
2010,06,01,06,11,1.20
2010,06,01,06,12,2.20
2010,06,01,06,13,2.30
2010,06,01,06,14,1.60
2010,06,01,06,15,0.50
2010,06,01,06,16,1.70
2010,06,01,06,17,3.10
2010,06,01,06,18,2.90
2010,06,01,06,19,0.50
2010,06,01,06,20,3.00
2010,06,01,06,21,0.70
2010,06,01,06,22,0.70
2010,06,01,06,23,2.80
2010,06,01,06,24,2.50
2010,06,01,06,25,0.20
2010,06,01,06,26,0.00
2010,06,01,06,27,0.20
2010,06,01,06,28,0.90
2010,06,01,06,29,0.10
2010,06,01,06,30,0.00
2010,06,01,06,31,0.00
2010,06,01,06,32,0.00
2010,06,01,06,33,0.00
2010,06,01,06,34,0.00
2010,06,01,06,35,0.10
2010,06,01,06,36,0.10
2010,06,01,06,37,0.00
2010,06,01,06,38,0.20
2010,06,01,06,39,0.00
2010,06,01,06,40,0.80
2010,06,01,06,41,0.20
2010,06,01,06,42,2.30
2010,06,01,06,43,2.20
2010,06,01,06,44,0.00
2010,06,01,06,45,0.00
2010,06,01,06,46,0.00
2010,06,01,06,47,0.30
2010,06,01,06,48,0.00
2010,06,01,06,49,0.00
2010,06,01,06,50,0.00
2010,06,01,06,51,0.00
2010,06,01,06,52,0.00
2010,06,01,06,53,0.00
2010,06,01,06,54,0.00
2010,06,01,06,55,0.00
2010,06,01,06,56,0.00
2010,06,01,06,57,0.00
2010,06,01,06,58,0.00
2010,06,01,06,59,0.00
2010,06,01,07,00,0.00
2010,06,01,07,01,0.00
2010,06,01,07,02,0.00
2010,06,01,07,03,0.10
2010,06,01,07,04,0.00
2010,06,01,07,05,0.00
2010,06,01,07,06,0.00
2010,06,01,07,07,0.00
2010,06,01,07,08,0.00
2010,06,01,07,09,0.00
2010,06,01,07,10,0.00
2010,06,01,07,11,0.10
2010,06,01,07,12,0.00
2010,06,01,07,13,0.00
2010,06,01,07,14,0.00
2010,06,01,07,15,0.00
2010,06,01,07,16,0.00
2010,06,01,07,17,0.00
2010,06,01,07,18,0.20
2010,06,01,07,19,0.20
2010,06,01,07,20,0.00
2010,06,01,07,21,0.00
2010,06,01,07,22,0.00
2010,06,01,07,23,0.20
2010,06,01,07,24,0.20
2010,06,01,07,25,0.80
2010,06,01,07,26,0.60
2010,06,01,07,27,1.40
2010,06,01,07,28,5.10
2010,06,01,07,29,5.00
2010,06,01,07,30,4.70
2010,06,01,07,31,4.00
2010,06,01,07,32,3.50
2010,06,01,07,33,3.50
2010,06,01,07,34,3.60
2010,06,01,07,35,4.60
2010,06,01,07,36,4.30
2010,06,01,07,37,5.80
2010,06,01,07,38,5.60
2010,06,01,07,39,8.10
2010,06,01,07,40,7.60
2010,06,01,07,41,7.00
2010,06,01,07,42,5.50
2010,06,01,07,43,3.70
2010,06,01,07,44,3.80
2010,06,01,07,45,6.50
2010,06,01,07,46,5.70
2010,06,01,07,47,2.60
2010,06,01,07,48,4.60
2010,06,01,07,49,6.40
2010,06,01,07,50,4.70
2010,06,01,07,51,5.10
2010,06,01,07,52,2.90
2010,06,01,07,53,2.90
2010,06,01,07,54,5.10
2010,06,01,07,55,4.40
2010,06,01,07,56,3.20
2010,06,01,07,57,4.00
2010,06,01,07,58,5.80
2010,06,01,07,59,9.70
2010,06,01,08,00,9.00
2010,06,01,08,01,2.50
2010,06,01,08,02,1.20
2010,06,01,08,03,1.30
2010,06,01,08,04,2.70
2010,06,01,08,05,2.90
2010,06,01,08,06,5.40
2010,06,01,08,07,1.00
2010,06,01,08,08,1.10
2010,06,01,08,09,6.80
2010,06,01,08,10,6.30
2010,06,01,08,11,3.30
2010,06,01,08,12,3.20
2010,06,01,08,13,1.80
2010,06,01,08,14,4.80
2010,06,01,08,15,3.90
2010,06,01,08,16,6.80
2010,06,01,08,17,9.00
2010,06,01,08,18,8.40
2010,06,01,08,19,6.60
2010,06,01,08,20,7.30
2010,06,01,08,21,6.80
2010,06,01,08,22,5.10
2010,06,01,08,23,6.40
2010,06,01,08,24,6.30
2010,06,01,08,25,4.80
2010,06,01,08,26,4.70
2010,06,01,08,28,7.10
2010,06,01,08,29,7.90
2010,06,01,08,30,5.10
2010,06,01,08,31,6.40
2010,06,01,08,32,4.00
2010,06,01,08,33,5.40
2010,06,01,08,34,3.80
2010,06,01,08,35,4.90
2010,06,01,08,36,3.50
2010,06,01,08,37,4.30
2010,06,01,08,38,4.70
2010,06,01,08,39,3.10
2010,06,01,08,40,2.50
2010,06,01,08,41,1.50
2010,06,01,08,42,5.10
2010,06,01,08,43,3.10
2010,06,01,08,44,2.70
2010,06,01,08,45,1.30
2010,06,01,08,46,3.60
2010,06,01,08,47,3.60
2010,06,01,08,48,6.50
2010,06,01,08,49,6.20
2010,06,01,08,50,7.80
2010,06,01,08,51,1.90
2010,06,01,08,52,1.60
2010,06,01,08,53,0.40
2010,06,01,08,54,5.90
2010,06,01,08,55,7.10
2010,06,01,08,56,3.80
2010,06,01,08,57,6.00
2010,06,01,08,58,7.60
2010,06,01,08,59,9.30
2010,06,01,09,00,10.10
2010,06,01,09,01,8.00
2010,06,01,09,02,7.00
2010,06,01,09,03,12.30
2010,06,01,09,04,12.20
2010,06,01,09,05,11.80
2010,06,01,09,06,8.70
2010,06,01,09,07,13.60
2010,06,01,09,08,9.90
2010,06,01,09,09,6.30
2010,06,01,09,10,4.00
2010,06,01,09,11,4.00
2010,06,01,09,12,9.20
2010,06,01,09,13,10.50
2010,06,01,09,14,7.80
2010,06,01,09,15,5.80
2010,06,01,09,16,8.00
2010,06,01,09,17,9.50
2010,06,01,09,18,10.10
2010,06,01,09,19,9.80
2010,06,01,09,20,8.40
2010,06,01,09,21,6.10
2010,06,01,09,22,5.70
2010,06,01,09,23,3.20
2010,06,01,09,24,7.20
2010,06,01,09,25,8.60
2010,06,01,09,26,10.60
2010,06,01,09,27,9.50
2010,06,01,09,28,4.00
2010,06,01,09,29,4.30
2010,06,01,09,30,5.20
2010,06,01,09,31,5.70
2010,06,01,09,32,8.00
2010,06,01,09,33,3.20
2010,06,01,09,34,5.40
2010,06,01,09,35,9.80
2010,06,01,09,36,8.70
2010,06,01,09,37,6.70
2010,06,01,09,38,3.70
2010,06,01,09,39,7.10
2010,06,01,09,40,10.00
2010,06,01,09,41,4.00
2010,06,01,09,42,6.80
2010,06,01,09,43,10.30
2010,06,01,09,44,5.10
2010,06,01,09,45,7.10
2010,06,01,09,46,9.20
2010,06,01,09,47,5.20
2010,06,01,09,48,7.90
2010,06,01,09,49,5.90
2010,06,01,09,50,10.60
2010,06,01,09,51,8.10
2010,06,01,09,52,7.10
2010,06,01,09,53,9.00
2010,06,01,09,54,14.60
2010,06,01,09,55,8.80
2010,06,01,09,56,9.20
2010,06,01,09,57,4.90
2010,06,01,09,58,8.90
2010,06,01,09,59,4.30
2010,06,01,10,00,7.90
2010,06,01,10,01,6.70
2010,06,01,10,02,6.20
2010,06,01,10,03,2.10
2010,06,01,10,04,3.90
2010,06,01,10,05,9.20
2010,06,01,10,06,11.50
2010,06,01,10,07,6.40
2010,06,01,10,08,5.50
2010,06,01,10,09,3.80
2010,06,01,10,10,10.50
2010,06,01,10,11,6.00
2010,06,01,10,12,6.90
2010,06,01,10,13,8.80
2010,06,01,10,14,7.30
2010,06,01,10,15,8.30
2010,06,01,10,16,11.30
2010,06,01,10,17,8.60
2010,06,01,10,18,11.30
2010,06,01,10,19,8.40
2010,06,01,10,20,5.20
2010,06,01,10,21,4.20
2010,06,01,10,22,5.10
2010,06,01,10,23,7.00
2010,06,01,10,24,8.70
2010,06,01,10,25,8.90
2010,06,01,10,26,4.00
2010,06,01,10,27,13.70
2010,06,01,10,28,11.40
2010,06,01,10,29,8.50
2010,06,01,10,30,7.50
2010,06,01,10,31,8.80
2010,06,01,10,32,4.50
2010,06,01,10,33,10.40
2010,06,01,10,34,10.60
2010,06,01,10,35,9.10
2010,06,01,10,36,7.60
2010,06,01,10,37,1.40
2010,06,01,10,38,2.70
2010,06,01,10,39,4.70
2010,06,01,10,40,4.30
2010,06,01,10,41,7.60
2010,06,01,10,42,7.80
2010,06,01,10,43,13.00
2010,06,01,10,44,12.40
2010,06,01,10,45,6.80
2010,06,01,10,46,10.50
2010,06,01,10,47,14.20
2010,06,01,10,48,15.80
2010,06,01,10,49,12.30
2010,06,01,10,50,19.40
2010,06,01,10,51,15.40
2010,06,01,10,52,5.50
2010,06,01,10,53,10.50
2010,06,01,10,54,10.20
2010,06,01,10,55,17.20
2010,06,01,10,56,13.40
2010,06,01,10,57,8.00
2010,06,01,10,58,9.30
2010,06,01,10,59,5.70
2010,06,01,11,00,4.70
2010,06,01,11,01,6.70
2010,06,01,11,02,7.40
2010,06,01,11,03,10.10
2010,06,01,11,04,15.60
2010,06,01,11,05,16.60
2010,06,01,11,06,17.80
2010,06,01,11,07,11.40
2010,06,01,11,08,15.40
2010,06,01,11,09,8.90
2010,06,01,11,10,7.80
2010,06,01,11,11,12.20
2010,06,01,11,12,14.10
2010,06,01,11,13,7.30
2010,06,01,11,14,7.00
2010,06,01,11,15,6.70
2010,06,01,11,16,10.80
2010,06,01,11,17,5.30
2010,06,01,11,18,6.10
2010,06,01,11,19,10.10
2010,06,01,11,20,11.60
2010,06,01,11,21,3.50
2010,06,01,11,22,6.10
2010,06,01,11,23,11.60
2010,06,01,11,24,15.10
2010,06,01,11,25,13.90
2010,06,01,11,26,12.90
2010,06,01,11,27,14.10
2010,06,01,11,28,15.90
2010,06,01,11,29,10.80
2010,06,01,11,30,14.50
2010,06,01,11,31,16.70
2010,06,01,11,32,15.60
2010,06,01,11,33,10.80
2010,06,01,11,34,7.50
2010,06,01,11,35,8.60
2010,06,01,11,36,4.00
2010,06,01,11,37,3.90
2010,06,01,11,38,11.20
2010,06,01,11,39,5.60
2010,06,01,11,40,9.40
2010,06,01,11,41,3.90
2010,06,01,11,42,11.30
2010,06,01,11,43,15.60
2010,06,01,11,44,16.50
2010,06,01,11,45,11.70
2010,06,01,11,46,13.00
2010,06,01,11,47,11.40
2010,06,01,11,48,9.70
2010,06,01,11,49,2.70
2010,06,01,11,50,10.60
2010,06,01,11,51,14.60
2010,06,01,11,52,4.00
2010,06,01,11,53,7.10
2010,06,01,11,54,8.70
2010,06,01,11,55,5.50
2010,06,01,11,56,12.40
2010,06,01,11,57,12.90
2010,06,01,11,58,10.90
2010,06,01,11,59,7.60
2010,06,01,12,00,10.70
2010,06,01,12,01,12.90
2010,06,01,12,02,8.00
2010,06,01,12,03,7.80
2010,06,01,12,04,8.40
2010,06,01,12,05,8.30
2010,06,01,12,06,17.70
2010,06,01,12,07,6.40
2010,06,01,12,08,5.50
2010,06,01,12,09,5.30
2010,06,01,12,10,6.40
2010,06,01,12,11,5.00
2010,06,01,12,12,8.90
2010,06,01,12,13,5.70
2010,06,01,12,14,7.70
2010,06,01,12,15,9.20
2010,06,01,12,16,11.00
2010,06,01,12,17,4.50
2010,06,01,12,18,10.00
2010,06,01,12,19,8.10
2010,06,01,12,20,11.80
2010,06,01,12,21,12.20
2010,06,01,12,22,7.40
2010,06,01,12,23,12.60
2010,06,01,12,24,6.40
2010,06,01,12,25,5.70
2010,06,01,12,26,5.20
2010,06,01,12,27,6.80
2010,06,01,12,28,4.40
2010,06,01,12,29,4.00
2010,06,01,12,30,14.70
2010,06,01,12,31,10.30
2010,06,01,12,32,6.90
2010,06,01,12,33,2.00
2010,06,01,12,34,5.80
2010,06,01,12,35,5.30
2010,06,01,12,36,16.30
2010,06,01,12,37,16.90
2010,06,01,12,38,8.40
2010,06,01,12,39,5.10
2010,06,01,12,40,8.40
2010,06,01,12,41,10.50
2010,06,01,12,42,12.60
2010,06,01,12,43,7.70
2010,06,01,12,44,8.20
2010,06,01,12,45,12.50
2010,06,01,12,46,4.70
2010,06,01,12,47,4.20
2010,06,01,12,48,7.60
2010,06,01,12,49,5.20
2010,06,01,12,50,7.10
2010,06,01,12,51,6.90
2010,06,01,12,52,10.90
2010,06,01,12,53,9.30
2010,06,01,12,54,10.70
2010,06,01,12,55,7.70
2010,06,01,12,56,9.90
2010,06,01,12,57,9.70
2010,06,01,12,58,9.40
2010,06,01,12,59,12.10
2010,06,01,13,00,9.40
2010,06,01,13,01,8.50
2010,06,01,13,02,5.20
2010,06,01,13,03,7.20
2010,06,01,13,04,14.00
2010,06,01,13,05,8.10
2010,06,01,13,06,8.50
2010,06,01,13,07,15.50
2010,06,01,13,08,12.80
2010,06,01,13,09,13.50
2010,06,01,13,10,15.80
2010,06,01,13,11,14.20
2010,06,01,13,12,7.00
2010,06,01,13,13,8.50
2010,06,01,13,14,10.90
2010,06,01,13,15,10.80
2010,06,01,13,16,11.60
2010,06,01,13,17,12.60
2010,06,01,13,18,6.30
2010,06,01,13,19,6.80
2010,06,01,13,20,5.10
2010,06,01,13,21,6.20
2010,06,01,13,22,13.90
2010,06,01,13,23,15.60
2010,06,01,13,24,6.20
2010,06,01,13,25,3.80
2010,06,01,13,26,13.60
2010,06,01,13,27,12.70
2010,06,01,13,28,17.60
2010,06,01,13,29,13.70
2010,06,01,13,30,11.50
2010,06,01,13,31,13.70
2010,06,01,13,32,8.50
2010,06,01,13,33,4.50
2010,06,01,13,34,5.70
2010,06,01,13,35,7.90
2010,06,01,13,36,8.80
2010,06,01,13,37,6.40
2010,06,01,13,38,5.00
2010,06,01,13,39,4.20
2010,06,01,13,40,10.20
2010,06,01,13,41,7.90
2010,06,01,13,42,8.00
2010,06,01,13,43,12.70
2010,06,01,13,44,12.10
2010,06,01,13,45,5.40
2010,06,01,13,46,12.40
2010,06,01,13,47,6.60
2010,06,01,13,48,6.00
2010,06,01,13,49,4.30
2010,06,01,13,50,8.50
2010,06,01,13,51,12.70
2010,06,01,13,52,20.50
2010,06,01,13,53,14.70
2010,06,01,13,54,9.00
2010,06,01,13,55,4.70
2010,06,01,13,56,8.00
2010,06,01,13,57,4.10
2010,06,01,13,58,3.40
2010,06,01,13,59,6.90
2010,06,01,14,00,13.30
2010,06,01,14,01,7.60
2010,06,01,14,02,10.10
2010,06,01,14,03,8.90
2010,06,01,14,04,11.40
2010,06,01,14,05,6.20
2010,06,01,14,06,7.90
2010,06,01,14,07,5.60
2010,06,01,14,08,8.90
2010,06,01,14,09,7.90
2010,06,01,14,10,3.10
2010,06,01,14,11,12.90
2010,06,01,14,12,13.10
2010,06,01,14,13,11.50
2010,06,01,14,14,8.70
2010,06,01,14,15,12.30
2010,06,01,14,16,13.70
2010,06,01,14,17,10.40
2010,06,01,14,18,8.30
2010,06,01,14,19,10.50
2010,06,01,14,20,12.90
2010,06,01,14,21,11.40
2010,06,01,14,22,9.80
2010,06,01,14,23,7.20
2010,06,01,14,24,7.30
2010,06,01,14,25,10.60
2010,06,01,14,26,8.90
2010,06,01,14,27,10.10
2010,06,01,14,28,9.00
2010,06,01,14,29,5.60
2010,06,01,14,30,16.40
2010,06,01,14,31,10.10
2010,06,01,14,32,7.50
2010,06,01,14,33,7.00
2010,06,01,14,34,8.70
2010,06,01,14,35,9.00
2010,06,01,14,36,5.90
2010,06,01,14,37,5.20
2010,06,01,14,38,7.30
2010,06,01,14,39,11.40
2010,06,01,14,40,11.10
2010,06,01,14,41,9.80
2010,06,01,14,42,13.10
2010,06,01,14,43,16.70
2010,06,01,14,44,10.40
2010,06,01,14,45,8.40
2010,06,01,14,46,1.80
2010,06,01,14,47,9.00
2010,06,01,14,48,7.30
2010,06,01,14,49,8.80
2010,06,01,14,50,12.20
2010,06,01,14,51,11.70
2010,06,01,14,52,6.90
2010,06,01,14,53,9.40
2010,06,01,14,54,6.60
2010,06,01,14,55,9.40
2010,06,01,14,56,5.90
2010,06,01,14,57,11.50
2010,06,01,14,58,13.10
2010,06,01,14,59,10.70
2010,06,01,15,00,4.80
2010,06,01,15,01,11.70
2010,06,01,15,02,3.40
2010,06,01,15,03,5.30
2010,06,01,15,04,9.70
2010,06,01,15,05,6.90
2010,06,01,15,06,4.10
2010,06,01,15,07,5.90
2010,06,01,15,08,10.80
2010,06,01,15,09,14.80
2010,06,01,15,10,16.30
2010,06,01,15,11,7.50
2010,06,01,15,12,7.40
2010,06,01,15,13,5.00
2010,06,01,15,14,7.70
2010,06,01,15,15,5.40
2010,06,01,15,16,6.80
2010,06,01,15,17,11.20
2010,06,01,15,18,11.80
2010,06,01,15,19,7.40
2010,06,01,15,20,5.00
2010,06,01,15,21,1.40
2010,06,01,15,22,8.90
2010,06,01,15,23,8.10
2010,06,01,15,24,5.20
2010,06,01,15,25,5.50
2010,06,01,15,26,12.40
2010,06,01,15,27,9.50
2010,06,01,15,28,7.20
2010,06,01,15,29,8.10
2010,06,01,15,30,8.90
2010,06,01,15,31,14.20
2010,06,01,15,32,12.20
2010,06,01,15,33,11.80
2010,06,01,15,34,8.70
2010,06,01,15,35,8.50
2010,06,01,15,36,9.60
2010,06,01,15,37,8.90
2010,06,01,15,38,4.30
2010,06,01,15,39,5.40
2010,06,01,15,40,6.50
2010,06,01,15,41,8.20
2010,06,01,15,42,3.00
2010,06,01,15,43,0.80
2010,06,01,15,44,4.10
2010,06,01,15,45,3.50
2010,06,01,15,46,4.80
2010,06,01,15,47,5.50
2010,06,01,15,48,8.80
2010,06,01,15,49,6.70
2010,06,01,15,50,7.60
2010,06,01,15,51,4.70
2010,06,01,15,52,6.40
2010,06,01,15,53,5.00
2010,06,01,15,54,7.10
2010,06,01,15,55,9.60
2010,06,01,15,56,7.10
2010,06,01,15,57,12.10
2010,06,01,15,58,10.80
2010,06,01,15,59,7.70
2010,06,01,16,00,5.70
2010,06,01,16,01,7.90
2010,06,01,16,02,9.30
2010,06,01,16,03,9.30
2010,06,01,16,04,9.70
2010,06,01,16,05,8.40
2010,06,01,16,06,5.80
2010,06,01,16,07,4.70
2010,06,01,16,08,7.20
2010,06,01,16,09,5.50
2010,06,01,16,10,5.70
2010,06,01,16,11,1.40
2010,06,01,16,12,1.00
2010,06,01,16,13,2.10
2010,06,01,16,14,3.80
2010,06,01,16,15,4.70
2010,06,01,16,16,6.00
2010,06,01,16,17,5.30
2010,06,01,16,18,3.50
2010,06,01,16,19,9.90
2010,06,01,16,20,11.70
2010,06,01,16,21,11.10
2010,06,01,16,22,7.60
2010,06,01,16,23,7.60
2010,06,01,16,24,4.10
2010,06,01,16,25,0.20
2010,06,01,16,26,3.80
2010,06,01,16,27,4.30
2010,06,01,16,28,6.20
2010,06,01,16,29,9.30
2010,06,01,16,30,9.30
2010,06,01,16,31,5.60
2010,06,01,16,32,5.80
2010,06,01,16,33,5.30
2010,06,01,16,34,6.90
2010,06,01,16,35,7.40
2010,06,01,16,36,5.60
2010,06,01,16,37,1.90
2010,06,01,16,38,1.40
2010,06,01,16,39,5.20
2010,06,01,16,40,6.20
2010,06,01,16,41,4.40
2010,06,01,16,42,2.00
2010,06,01,16,43,5.30
2010,06,01,16,44,4.30
2010,06,01,16,45,1.50
2010,06,01,16,46,6.30
2010,06,01,16,47,10.50
2010,06,01,16,48,5.50
2010,06,01,16,49,6.60
2010,06,01,16,50,9.60
2010,06,01,16,51,10.10
2010,06,01,16,52,7.10
2010,06,01,16,53,5.00
2010,06,01,16,54,0.30
2010,06,01,16,55,2.10
2010,06,01,16,56,3.80
2010,06,01,16,57,3.90
2010,06,01,16,58,2.60
2010,06,01,16,59,7.00
2010,06,01,17,00,7.00
2010,06,01,17,01,6.20
2010,06,01,17,02,9.10
2010,06,01,17,03,8.10
2010,06,01,17,04,4.80
2010,06,01,17,05,4.60
2010,06,01,17,06,1.40
2010,06,01,17,07,9.50
2010,06,01,17,08,6.80
2010,06,01,17,09,3.40
2010,06,01,17,10,4.10
2010,06,01,17,11,6.10
2010,06,01,17,12,7.00
2010,06,01,17,13,7.40
2010,06,01,17,14,7.70
2010,06,01,17,15,11.30
2010,06,01,17,16,15.60
2010,06,01,17,17,11.80
2010,06,01,17,18,9.70
2010,06,01,17,19,8.10
2010,06,01,17,20,6.30
2010,06,01,17,21,4.40
2010,06,01,17,22,7.30
2010,06,01,17,23,7.60
2010,06,01,17,24,10.90
2010,06,01,17,25,6.90
2010,06,01,17,26,8.60
2010,06,01,17,27,8.90
2010,06,01,17,28,5.50
2010,06,01,17,29,6.10
2010,06,01,17,30,7.30
2010,06,01,17,31,7.50
2010,06,01,17,32,8.10
2010,06,01,17,33,9.10
2010,06,01,17,34,9.60
2010,06,01,17,35,10.60
2010,06,01,17,36,4.60
2010,06,01,17,37,5.20
2010,06,01,17,38,2.60
2010,06,01,17,39,3.90
2010,06,01,17,40,5.60
2010,06,01,17,41,5.60
2010,06,01,17,42,5.70
2010,06,01,17,43,6.20
2010,06,01,17,44,2.80
2010,06,01,17,45,9.80
2010,06,01,17,46,7.20
2010,06,01,17,47,7.10
2010,06,01,17,48,3.10
2010,06,01,17,49,4.00
2010,06,01,17,50,3.30
2010,06,01,17,51,3.00
2010,06,01,17,52,8.60
2010,06,01,17,53,5.40
2010,06,01,17,54,4.30
2010,06,01,17,55,2.30
2010,06,01,17,56,5.80
2010,06,01,17,57,8.00
2010,06,01,17,58,7.30
2010,06,01,17,59,5.60
2010,06,01,18,00,6.20